Zurück zum Katalog

SCOUT A R/B

AktivPO
NORAD 2755·ROCKET BODY·🇺🇸 United States

Gestartet Apr 14, 1967 von Vandenberg Space Force Base

Loading…

Nächste Überflüge (nächste 24 Stunden)

TLE

AktuellSource: Space-Track

Epoche: Sep 14, 2026, 21:16 UTC

1 02755U 67034B   26257.88653741 -.00000054  00000-0 -92252-4 0  9998
2 02755  90.2722  58.5900 0027233  91.2722  75.1732 13.54020067934177

Verfolge SCOUT A R/B in Echtzeit mit AllMySat

Download on the App Store